BMCB-1 Weather Reports


time (UTC)temp
C
wind
direction
speed
KPH
gust
KPH
rain 1hr
cm
rain 24hr
cm
rain mn
cm
humidity
%
barometer
mb
20260510064013 10 0 0.0 0.0 0.00 0.00 0.00 82 1018.1
20260510062014 10 0 0.0 0.0 0.00 0.00 0.00 83 1018.2
20260510061014 10 0 0.0 0.0 0.00 0.00 0.00 84 1018.3
20260510060013 10 0 0.0 0.0 0.00 0.00 0.00 84 1018.4
20260510055013 9 0 0.0 0.0 0.00 0.00 0.00 85 1018.4
20260510054013 9 0 0.0 0.0 0.00 0.00 0.00 85 1018.5
20260510053013 9 0 0.0 0.0 0.00 0.00 0.00 85 1018.5
20260510052013 9 0 0.0 0.0 0.00 0.00 0.00 85 1018.5
20260510050014 9 0 0.0 0.0 0.00 0.00 0.00 85 1018.6
20260510044013 9 0 0.0 0.0 0.00 0.00 0.00 84 1018.5
20260510043014 9 0 0.0 0.0 0.00 0.00 0.00 84 1018.4
20260510042014 9 0 0.0 0.0 0.00 0.00 0.00 84 1018.4
20260510041042 10 0 0.0 0.0 0.00 0.00 0.00 83 1018.4
20260510040013 10 0 0.0 0.0 0.00 0.00 0.00 83 1018.4
20260510034013 10 0 0.0 0.0 0.00 0.00 0.00 82 1018.6
20260510033014 10 0 0.0 0.0 0.00 0.00 0.00 82 1018.6
20260510032014 10 0 0.0 0.0 0.00 0.00 0.00 82 1018.7
20260510031022 10 0 0.0 0.0 0.00 0.00 0.00 81 1018.7
20260510030014 10 0 0.0 0.0 0.00 0.00 0.00 80 1018.7
20260510025014 10 0 0.0 0.0 0.00 0.00 0.00 80 1018.7
20260510024013 10 0 0.0 0.0 0.00 0.00 0.00 81 1018.8
20260510023014 10 0 0.0 0.0 0.00 0.00 0.00 81 1018.9
20260510022020 10 0 0.0 0.0 0.00 0.00 0.00 81 1018.9
20260510021014 10 0 0.0 0.0 0.00 0.00 0.00 82 1018.9
20260510020014 10 0 0.0 0.0 0.00 0.00 0.00 82 1019.0
20260510013014 9 0 0.0 0.0 0.00 0.00 0.00 84 1019.2
20260510012015 8 0 0.0 0.0 0.00 0.00 0.00 85 1019.4
20260510010014 8 0 0.0 0.0 0.00 0.00 0.00 85 1019.6
20260510005014 8 0 0.0 0.0 0.00 0.00 0.00 85 1019.7
20260510003019 9 0 0.0 0.0 0.00 0.00 0.00 82 1019.7
20260510002014 10 0 0.0 0.0 0.00 0.00 0.00 81 1019.8
20260510001014 9 0 0.0 0.0 0.00 0.00 0.00 82 1019.9
20260509235015 10 0 0.0 0.0 0.00 0.00 0.00 78 1019.8
20260509234022 11 0 0.0 0.0 0.00 0.00 0.00 77 1019.8
20260509232019 11 0 0.0 0.0 0.00 0.00 0.00 75 1019.7
20260509231023 11 0 0.0 0.0 0.00 0.00 0.00 75 1019.8
20260509230022 11 0 0.0 0.0 0.00 0.00 0.00 77 1019.8
20260509225020 10 0 0.0 0.0 0.00 0.00 0.00 77 1020.0
20260509223016 10 0 0.0 0.0 0.00 0.00 0.00 78 1020.2
20260509222016 10 0 0.0 0.0 0.00 0.00 0.00 77 1020.2
20260509221021 11 0 0.0 0.0 0.00 0.00 0.00 75 1020.1
20260509220019 11 0 0.0 0.0 0.00 0.00 0.00 72 1020.1
20260509215023 12 0 0.0 0.0 0.00 0.00 0.00 71 1020.0
20260509214021 12 0 0.0 0.0 0.00 0.00 0.00 71 1020.1
20260509213015 11 0 0.0 0.0 0.00 0.00 0.00 72 1020.1
20260509212021 12 0 0.0 0.0 0.00 0.00 0.00 72 1020.1
20260509211022 12 0 0.0 0.0 0.00 0.00 0.00 71 1020.1
20260509210022 12 0 0.0 0.0 0.00 0.00 0.00 71 1020.0
20260509203022 13 0 0.0 0.0 0.00 0.00 0.00 67 1020.0
20260509201045 13 0 0.0 0.0 0.00 0.00 0.00 64 1019.9
20260509200023 14 0 0.0 0.0 0.00 0.00 0.00 63 1019.9
20260509195049 14 0 0.0 0.0 0.00 0.00 0.00 63 1019.9
20260509194016 15 0 0.0 0.0 0.00 0.00 0.00 62 1019.7
20260509193023 15 0 0.0 0.0 0.00 0.00 0.00 61 1019.5
20260509192020 15 0 0.0 0.0 0.00 0.00 0.00 60 1019.4
20260509191018 15 0 0.0 0.0 0.00 0.00 0.00 60 1019.3
20260509190019 16 0 0.0 0.0 0.00 0.00 0.00 59 1019.3
20260509185017 16 0 0.0 0.0 0.00 0.00 0.00 58 1019.3
20260509184018 16 0 0.0 0.0 0.00 0.00 0.00 57 1019.2
20260509183019 17 0 0.0 0.0 0.00 0.00 0.00 55 1019.1
20260509182023 17 0 0.0 0.0 0.00 0.00 0.00 54 1018.9
20260509181015 17 0 0.0 0.0 0.00 0.00 0.00 54 1018.8
20260509180022 18 0 0.0 0.0 0.00 0.00 0.00 53 1018.8
20260509173015 18 0 0.0 0.0 0.00 0.00 0.00 50 1018.8
20260509171016 18 0 0.0 0.0 0.00 0.00 0.00 50 1018.6
20260509170020 18 0 0.0 0.0 0.00 0.00 0.00 51 1018.6
20260509165015 18 0 0.0 0.0 0.00 0.00 0.00 51 1018.5
20260509164016 19 0 0.0 0.0 0.00 0.00 0.00 50 1018.5
20260509162016 19 0 0.0 0.0 0.00 0.00 0.00 49 1018.4
20260509161022 20 0 0.0 0.0 0.00 0.00 0.00 48 1018.4
20260509160016 20 0 0.0 0.0 0.00 0.00 0.00 46 1018.5
20260509155016 20 0 0.0 0.0 0.00 0.00 0.00 46 1018.5
20260509154015 20 0 0.0 0.0 0.00 0.00 0.00 45 1018.5
20260509153016 20 0 0.0 0.0 0.00 0.00 0.00 45 1018.6
20260509152016 20 0 0.0 0.0 0.00 0.00 0.00 46 1018.7
20260509151016 20 0 0.0 0.0 0.00 0.00 0.00 46 1018.8
20260509150017 20 0 0.0 0.0 0.00 0.00 0.00 45 1018.9
20260509145044 20 0 0.0 0.0 0.00 0.00 0.00 44 1018.9
20260509143016 20 0 0.0 0.0 0.00 0.00 0.00 46 1019.0
20260509142015 20 0 0.0 0.0 0.00 0.00 0.00 46 1019.1
20260509141053 19 0 0.0 0.0 0.00 0.00 0.00 46 1019.3
20260509140014 19 0 0.0 0.0 0.00 0.00 0.00 46 1019.3
20260509135014 19 0 0.0 0.0 0.00 0.00 0.00 46 1019.5
20260509132016 19 0 0.0 0.0 0.00 0.00 0.00 47 1019.7
20260509131014 19 0 0.0 0.0 0.00 0.00 0.00 46 1019.8
20260509125015 19 0 0.0 0.0 0.00 0.00 0.00 48 1020.0
20260509124015 19 0 0.0 0.0 0.00 0.00 0.00 46 1020.0
20260509123017 19 0 0.0 0.0 0.00 0.00 0.00 47 1020.2
20260509122015 19 0 0.0 0.0 0.00 0.00 0.00 49 1020.2
20260509121015 19 0 0.0 0.0 0.00 0.00 0.00 48 1020.3
20260509115016 18 0 0.0 0.0 0.00 0.00 0.00 48 1020.6
20260509114015 19 0 0.0 0.0 0.00 0.00 0.00 48 1020.7
20260509113015 18 0 0.0 0.0 0.00 0.00 0.00 48 1020.8
20260509110016 18 0 0.0 0.0 0.00 0.00 0.00 49 1021.1
20260509105014 18 0 0.0 0.0 0.00 0.00 0.00 50 1021.2
20260509103016 17 0 0.0 0.0 0.00 0.00 0.00 52 1021.3
20260509102016 17 0 0.0 0.0 0.00 0.00 0.00 53 1021.4
20260509101016 17 0 0.0 0.0 0.00 0.00 0.00 54 1021.5
20260509094015 17 0 0.0 0.0 0.00 0.00 0.00 54 1021.6
20260509093015 17 0 0.0 0.0 0.00 0.00 0.00 55 1021.6
20260509092015 16 0 0.0 0.0 0.00 0.00 0.00 55 1021.7
20260509091015 16 0 0.0 0.0 0.00 0.00 0.00 57 1021.7
20260509090015 16 0 0.0 0.0 0.00 0.00 0.00 60 1021.7
20260509083015 15 0 0.0 0.0 0.00 0.00 0.00 66 1021.9
20260509081014 15 0 0.0 0.0 0.00 0.00 0.00 68 1022.0
20260509080015 15 0 0.0 0.0 0.00 0.00 0.00 69 1022.1
20260509075015 15 0 0.0 0.0 0.00 0.00 0.00 71 1022.2
20260509074015 14 0 0.0 0.0 0.00 0.00 0.00 72 1022.3
20260509073016 13 0 0.0 0.0 0.00 0.00 0.00 73 1022.2
20260509072042 13 0 0.0 0.0 0.00 0.00 0.00 74 1022.3
20260509070015 12 0 0.0 0.0 0.00 0.00 0.00 75 1022.4
20260509065019 12 0 0.0 0.0 0.00 0.00 0.00 77 1022.5